Location: Ago
(8.4667°N, 4.4833°E)
Time: 22:51:42
(UTC+00:00)

GPS 2-14 Rocket1 - Pass Details

Date: 18 September 2020
Orbit: 476 x 541 km, 20.7° (Epoch: 20 October)

Event Time Altitude Azimuth Distance (km) Brightness Sun altitude
Rises 18:11:36 0° 280° (W) 2,501 8.5 -8.6°
Reaches altitude 10° 18:13:53 10° 272° (W) 1,625 6.9 -9.2°
Maximum altitude 18:17:24 39° 202° (SSW) 714 3.6 -10.0°
Drops below altitude 10° 18:20:58 10° 131° (SE) 1,639 4.8 -10.9°
Enters shadow 18:21:00 10° 131° (SE) 1,651 4.8 -10.9°
